Tracking 19477 objects as of 16-Jan-2019
HD Live streaming from Space Station
objects crossing your sky now

COSMOS 862

Track COSMOS 862 now!
COSMOS 862 is classified as:


NORAD ID: 9495
Int'l Code: 1976-105A
Perigee: 5,024.5 km
Apogee: 35,393.1 km
Inclination: 69.6 °
Period: 718.8 minutes
Semi major axis: 26579 km
RCS: 11.7728 m2 (large)
Launch date: October 22, 1976
Source: Commonwealth of Independent States (former USSR) (CIS)
Launch site: PLESETSK MISSILE AND SPACE COMPLEX (PKMTR)
aabbcc
Your satellite tracking list
Your tracking list is empty




NASA's NSSDC Master Catalog

Two Line Element Set (TLE):
1  9495U 76105A   19014.00860303 -.00000307  00000-0  00000+0 0  9991
2  9495  69.6470 200.6217 5712707 276.1638  25.1254  2.00343615187291
Source of the keplerian elements: AFSPC